Time,TemperatureF,DewpointF,PressureIn,WindDirection,WindDirectionDegrees,WindSpeedMPH,WindSpeedGustMPH,Humidity,HourlyPrecipIn,Conditions,Clouds,dailyrainin,SoftwareType,DateUTC
2013-01-15 00:00:00,17.9,15.2,30.39,WSW,257,0.0,0.0,89,0.00,,,0.00,Wunderground v.1.15,2013-01-15 05:00:00,
2013-01-15 00:03:00,17.8,15.1,30.39,WSW,257,0.0,0.0,89,0.00,,,0.00,Wunderground v.1.15,2013-01-15 05:03:00,
2013-01-15 00:05:00,17.7,15.0,30.40,WSW,257,0.0,0.0,89,0.00,,,0.00,Wunderground v.1.15,2013-01-15 05:05:00,
2013-01-15 00:11:00,17.3,14.6,30.40,WSW,257,0.0,0.0,89,0.00,,,0.00,Wunderground v.1.15,2013-01-15 05:11:00,
2013-01-15 00:16:00,17.1,14.4,30.40,WSW,257,0.0,0.0,89,0.00,,,0.00,Wunderground v.1.15,2013-01-15 05:16:00,
2013-01-15 00:22:00,17.0,14.3,30.40,WSW,257,0.0,0.0,89,0.00,,,0.00,Wunderground v.1.15,2013-01-15 05:22:00,
2013-01-15 00:27:00,16.8,14.1,30.39,WSW,257,0.0,0.0,89,0.00,,,0.00,Wunderground v.1.15,2013-01-15 05:27:00,
2013-01-15 00:33:00,16.9,14.5,30.40,WSW,257,0.0,0.0,90,0.00,,,0.00,Wunderground v.1.15,2013-01-15 05:33:00,
2013-01-15 00:39:00,17.0,14.8,30.39,WSW,257,0.0,0.0,91,0.00,,,0.00,Wunderground v.1.15,2013-01-15 05:39:00,
2013-01-15 00:44:00,17.1,14.7,30.39,WSW,257,0.0,0.0,90,0.00,,,0.00,Wunderground v.1.15,2013-01-15 05:44:00,
2013-01-15 00:50:00,17.1,14.7,30.40,WSW,257,0.0,0.0,90,0.00,,,0.00,Wunderground v.1.15,2013-01-15 05:50:00,
2013-01-15 00:55:00,17.0,14.6,30.40,WSW,258,0.0,0.0,90,0.00,,,0.00,Wunderground v.1.15,2013-01-15 05:55:00,
2013-01-15 01:00:00,17.1,14.9,30.41,WSW,257,0.0,0.0,91,0.00,,,0.00,Wunderground v.1.15,2013-01-15 06:00:00,
2013-01-15 01:06:00,17.1,14.9,30.41,WSW,257,0.0,0.0,91,0.00,,,0.00,Wunderground v.1.15,2013-01-15 06:06:00,
2013-01-15 01:12:00,17.0,14.6,30.40,WSW,257,0.0,0.0,90,0.00,,,0.00,Wunderground v.1.15,2013-01-15 06:12:00,
2013-01-15 01:17:00,16.9,14.5,30.40,WSW,257,0.0,0.0,90,0.00,,,0.00,Wunderground v.1.15,2013-01-15 06:17:00,
2013-01-15 01:22:00,16.9,14.5,30.40,WSW,257,0.0,0.0,90,0.00,,,0.00,Wunderground v.1.15,2013-01-15 06:22:00,
2013-01-15 01:28:00,16.9,14.7,30.40,WSW,257,0.0,0.0,91,0.00,,,0.00,Wunderground v.1.15,2013-01-15 06:28:00,
2013-01-15 01:33:00,16.9,14.7,30.41,WSW,257,0.0,0.0,91,0.00,,,0.00,Wunderground v.1.15,2013-01-15 06:33:00,
2013-01-15 01:39:00,16.9,14.7,30.41,WSW,257,0.0,0.0,91,0.00,,,0.00,Wunderground v.1.15,2013-01-15 06:39:00,
2013-01-15 01:45:00,16.8,14.4,30.41,WSW,258,0.0,0.0,90,0.00,,,0.00,Wunderground v.1.15,2013-01-15 06:45:00,
2013-01-15 01:51:00,16.8,14.6,30.41,WSW,257,0.0,0.0,91,0.00,,,0.00,Wunderground v.1.15,2013-01-15 06:51:00,
2013-01-15 01:57:00,16.8,14.6,30.41,WSW,257,0.0,0.0,91,0.00,,,0.00,Wunderground v.1.15,2013-01-15 06:57:00,
2013-01-15 02:02:00,16.8,14.6,30.41,WSW,257,0.0,0.0,91,0.00,,,0.00,Wunderground v.1.15,2013-01-15 07:02:00,
2013-01-15 02:08:00,16.8,14.6,30.41,WSW,257,0.0,0.0,91,0.00,,,0.00,Wunderground v.1.15,2013-01-15 07:08:00,
2013-01-15 02:14:00,16.8,14.6,30.41,WSW,257,0.0,0.0,91,0.00,,,0.00,Wunderground v.1.15,2013-01-15 07:14:00,
2013-01-15 02:20:00,16.8,14.6,30.41,WSW,257,0.0,0.0,91,0.00,,,0.00,Wunderground v.1.15,2013-01-15 07:20:00,
2013-01-15 02:25:00,16.7,14.5,30.42,WSW,257,0.0,0.0,91,0.00,,,0.00,Wunderground v.1.15,2013-01-15 07:25:00,
2013-01-15 02:30:00,16.8,14.6,30.41,WSW,257,0.0,0.0,91,0.00,,,0.00,Wunderground v.1.15,2013-01-15 07:30:00,
2013-01-15 02:36:00,16.8,14.6,30.42,WSW,257,0.0,0.0,91,0.00,,,0.00,Wunderground v.1.15,2013-01-15 07:36:00,
2013-01-15 02:42:00,16.8,14.6,30.42,WSW,257,0.0,0.0,91,0.00,,,0.00,Wunderground v.1.15,2013-01-15 07:42:00,
2013-01-15 02:47:00,16.8,14.6,30.42,WSW,257,0.0,0.0,91,0.00,,,0.00,Wunderground v.1.15,2013-01-15 07:47:00,
2013-01-15 02:52:00,16.7,14.3,30.42,WSW,257,0.0,0.0,90,0.00,,,0.00,Wunderground v.1.15,2013-01-15 07:52:00,
2013-01-15 02:58:00,16.7,14.5,30.42,WSW,257,0.0,0.0,91,0.00,,,0.00,Wunderground v.1.15,2013-01-15 07:58:00,
2013-01-15 03:04:00,16.6,14.2,30.42,WSW,257,0.0,0.0,90,0.00,,,0.00,Wunderground v.1.15,2013-01-15 08:04:00,
2013-01-15 03:09:00,16.5,14.1,30.42,WSW,257,0.0,0.0,90,0.00,,,0.00,Wunderground v.1.15,2013-01-15 08:09:00,
2013-01-15 03:15:00,16.4,14.2,30.42,WSW,257,0.0,0.0,91,0.00,,,0.00,Wunderground v.1.15,2013-01-15 08:15:00,
2013-01-15 03:20:00,16.3,13.9,30.42,WSW,257,0.0,0.0,90,0.00,,,0.00,Wunderground v.1.15,2013-01-15 08:20:00,
2013-01-15 03:26:00,16.1,13.7,30.42,WSW,257,0.0,0.0,90,0.00,,,0.00,Wunderground v.1.15,2013-01-15 08:26:00,
2013-01-15 03:32:00,16.1,13.9,30.42,WSW,257,0.0,0.0,91,0.00,,,0.00,Wunderground v.1.15,2013-01-15 08:32:00,
2013-01-15 03:38:00,16.1,13.9,30.42,WSW,257,0.0,0.0,91,0.00,,,0.00,Wunderground v.1.15,2013-01-15 08:38:00,
2013-01-15 03:43:00,16.0,13.8,30.42,WSW,257,0.0,0.0,91,0.00,,,0.00,Wunderground v.1.15,2013-01-15 08:43:00,
2013-01-15 03:49:00,15.8,13.6,30.42,WSW,257,0.0,0.0,91,0.00,,,0.00,Wunderground v.1.15,2013-01-15 08:49:00,
2013-01-15 03:54:00,15.7,13.5,30.42,South,188,0.0,0.0,91,0.00,,,0.00,Wunderground v.1.15,2013-01-15 08:54:00,
2013-01-15 03:59:00,15.6,13.4,30.41,South,188,0.0,0.0,91,0.00,,,0.00,Wunderground v.1.15,2013-01-15 08:59:00,
2013-01-15 04:05:00,15.6,13.4,30.41,South,188,0.0,0.0,91,0.00,,,0.00,Wunderground v.1.15,2013-01-15 09:05:00,
2013-01-15 04:10:00,15.6,13.4,30.41,South,188,0.0,0.0,91,0.00,,,0.00,Wunderground v.1.15,2013-01-15 09:10:00,
2013-01-15 04:16:00,15.6,13.4,30.41,South,188,0.0,0.0,91,0.00,,,0.00,Wunderground v.1.15,2013-01-15 09:16:00,
2013-01-15 04:22:00,15.6,13.4,30.41,South,188,0.0,0.0,91,0.00,,,0.00,Wunderground v.1.15,2013-01-15 09:22:00,
2013-01-15 04:27:00,15.7,13.5,30.41,South,188,0.0,0.0,91,0.00,,,0.00,Wunderground v.1.15,2013-01-15 09:27:00,
2013-01-15 04:32:00,15.6,13.4,30.41,South,188,0.0,0.0,91,0.00,,,0.00,Wunderground v.1.15,2013-01-15 09:32:00,
2013-01-15 04:38:00,15.5,13.3,30.41,South,188,0.0,0.0,91,0.00,,,0.00,Wunderground v.1.15,2013-01-15 09:38:00,
2013-01-15 04:43:00,15.5,13.3,30.41,South,188,0.0,0.0,91,0.00,,,0.00,Wunderground v.1.15,2013-01-15 09:43:00,
2013-01-15 04:49:00,15.4,13.2,30.41,South,188,0.0,0.0,91,0.00,,,0.00,Wunderground v.1.15,2013-01-15 09:49:00,
2013-01-15 04:54:00,15.3,13.1,30.41,South,188,0.0,0.0,91,0.00,,,0.00,Wunderground v.1.15,2013-01-15 09:54:00,
2013-01-15 05:00:00,15.3,13.1,30.41,South,188,0.0,0.0,91,0.00,,,0.00,Wunderground v.1.15,2013-01-15 10:00:00,
2013-01-15 05:06:00,15.2,13.0,30.41,South,188,0.0,0.0,91,0.00,,,0.00,Wunderground v.1.15,2013-01-15 10:06:00,
2013-01-15 05:12:00,15.1,12.9,30.41,South,188,0.0,0.0,91,0.00,,,0.00,Wunderground v.1.15,2013-01-15 10:12:00,
2013-01-15 05:17:00,14.9,12.7,30.41,South,188,0.0,0.0,91,0.00,,,0.00,Wunderground v.1.15,2013-01-15 10:17:00,
2013-01-15 05:23:00,14.6,12.5,30.41,South,188,0.0,0.0,91,0.00,,,0.00,Wunderground v.1.15,2013-01-15 10:23:00,
2013-01-15 05:28:00,14.6,12.5,30.40,South,188,0.0,0.0,91,0.00,,,0.00,Wunderground v.1.15,2013-01-15 10:28:00,
2013-01-15 05:34:00,14.5,12.4,30.41,South,188,0.0,0.0,91,0.00,,,0.00,Wunderground v.1.15,2013-01-15 10:34:00,
2013-01-15 05:39:00,14.5,12.4,30.41,South,188,0.0,0.0,91,0.00,,,0.00,Wunderground v.1.15,2013-01-15 10:39:00,
2013-01-15 05:45:00,14.4,12.3,30.41,South,188,0.0,0.0,91,0.00,,,0.00,Wunderground v.1.15,2013-01-15 10:45:00,
2013-01-15 05:51:00,14.5,12.6,30.41,South,188,0.0,0.0,92,0.00,,,0.00,Wunderground v.1.15,2013-01-15 10:51:00,
2013-01-15 05:56:00,14.5,12.6,30.41,South,188,0.0,0.0,92,0.00,,,0.00,Wunderground v.1.15,2013-01-15 10:56:00,
2013-01-15 06:02:00,14.4,12.3,30.41,South,188,0.0,0.0,91,0.00,,,0.00,Wunderground v.1.15,2013-01-15 11:02:00,
2013-01-15 06:07:00,14.3,12.2,30.41,South,188,0.0,0.0,91,0.00,,,0.00,Wunderground v.1.15,2013-01-15 11:07:00,
2013-01-15 06:13:00,14.0,11.9,30.41,South,188,0.0,0.0,91,0.00,,,0.00,Wunderground v.1.15,2013-01-15 11:13:00,
2013-01-15 06:19:00,13.9,11.8,30.41,South,188,0.0,0.0,91,0.00,,,0.00,Wunderground v.1.15,2013-01-15 11:19:00,
2013-01-15 06:24:00,13.9,11.8,30.41,South,188,0.0,0.0,91,0.00,,,0.00,Wunderground v.1.15,2013-01-15 11:24:00,
2013-01-15 06:30:00,13.9,12.0,30.41,South,188,0.0,0.0,92,0.00,,,0.00,Wunderground v.1.15,2013-01-15 11:30:00,
2013-01-15 06:35:00,14.1,12.2,30.41,South,188,0.0,0.0,92,0.00,,,0.00,Wunderground v.1.15,2013-01-15 11:35:00,
2013-01-15 06:40:00,14.1,12.2,30.41,South,188,0.0,0.0,92,0.00,,,0.00,Wunderground v.1.15,2013-01-15 11:40:00,
2013-01-15 06:46:00,14.2,12.3,30.42,South,188,0.0,0.0,92,0.00,,,0.00,Wunderground v.1.15,2013-01-15 11:46:00,
2013-01-15 06:52:00,14.1,12.2,30.42,South,188,0.0,0.0,92,0.00,,,0.00,Wunderground v.1.15,2013-01-15 11:52:00,
2013-01-15 06:57:00,14.1,12.2,30.42,South,188,0.0,0.0,92,0.00,,,0.00,Wunderground v.1.15,2013-01-15 11:57:00,
2013-01-15 07:03:00,14.1,12.2,30.42,South,188,0.0,0.0,92,0.00,,,0.00,Wunderground v.1.15,2013-01-15 12:03:00,
2013-01-15 07:08:00,14.0,12.1,30.42,South,188,0.0,0.0,92,0.00,,,0.00,Wunderground v.1.15,2013-01-15 12:08:00,
2013-01-15 07:14:00,14.0,12.1,30.42,South,188,0.0,0.0,92,0.00,,,0.00,Wunderground v.1.15,2013-01-15 12:14:00,
2013-01-15 07:19:00,14.0,12.1,30.43,South,188,0.0,0.0,92,0.00,,,0.00,Wunderground v.1.15,2013-01-15 12:19:00,
2013-01-15 07:24:00,14.1,12.2,30.43,South,188,0.0,0.0,92,0.00,,,0.00,Wunderground v.1.15,2013-01-15 12:24:00,
2013-01-15 07:30:00,14.3,12.4,30.43,South,188,0.0,0.0,92,0.00,,,0.00,Wunderground v.1.15,2013-01-15 12:30:00,
2013-01-15 07:36:00,14.4,12.5,30.43,South,188,0.0,0.0,92,0.00,,,0.00,Wunderground v.1.15,2013-01-15 12:36:00,
2013-01-15 07:41:00,14.4,12.5,30.43,South,188,0.0,0.0,92,0.00,,,0.00,Wunderground v.1.15,2013-01-15 12:41:00,
2013-01-15 07:47:00,14.4,12.5,30.42,South,188,0.0,0.0,92,0.00,,,0.00,Wunderground v.1.15,2013-01-15 12:47:00,
2013-01-15 07:52:00,14.4,12.3,30.43,South,188,0.0,0.0,91,0.00,,,0.00,Wunderground v.1.15,2013-01-15 12:52:00,
2013-01-15 07:57:00,14.3,12.2,30.43,South,188,0.0,0.0,91,0.00,,,0.00,Wunderground v.1.15,2013-01-15 12:57:00,
2013-01-15 08:03:00,14.4,12.3,30.43,South,188,0.0,0.0,91,0.00,,,0.00,Wunderground v.1.15,2013-01-15 13:03:00,
2013-01-15 08:09:00,14.4,12.5,30.43,SE,139,0.0,0.0,92,0.00,,,0.00,Wunderground v.1.15,2013-01-15 13:09:00,
2013-01-15 08:14:00,14.5,12.6,30.42,SE,139,0.0,0.0,92,0.00,,,0.00,Wunderground v.1.15,2013-01-15 13:14:00,
2013-01-15 08:20:00,14.5,12.6,30.42,SE,139,0.0,0.0,92,0.00,,,0.00,Wunderground v.1.15,2013-01-15 13:20:00,
2013-01-15 08:25:00,14.6,12.7,30.42,SE,139,0.0,0.0,92,0.00,,,0.00,Wunderground v.1.15,2013-01-15 13:25:00,
2013-01-15 08:30:00,14.6,12.5,30.43,SE,139,0.0,0.0,91,0.00,,,0.00,Wunderground v.1.15,2013-01-15 13:30:00,
2013-01-15 08:36:00,14.7,12.8,30.43,SE,139,0.0,0.0,92,0.00,,,0.00,Wunderground v.1.15,2013-01-15 13:36:00,
2013-01-15 08:41:00,14.9,13.0,30.43,SE,140,0.0,0.0,92,0.00,,,0.00,Wunderground v.1.15,2013-01-15 13:41:00,
2013-01-15 08:47:00,15.2,13.3,30.44,SE,139,0.0,0.0,92,0.00,,,0.00,Wunderground v.1.15,2013-01-15 13:47:00,
2013-01-15 08:52:00,15.5,13.6,30.44,SE,139,0.0,1.0,92,0.00,,,0.00,Wunderground v.1.15,2013-01-15 13:52:00,
2013-01-15 08:58:00,16.0,14.1,30.45,SE,139,1.0,1.0,92,0.00,,,0.00,Wunderground v.1.15,2013-01-15 13:58:00,
2013-01-15 09:03:00,16.4,14.5,30.45,SE,139,0.0,0.0,92,0.00,,,0.00,Wunderground v.1.15,2013-01-15 14:03:00,
2013-01-15 09:09:00,16.9,15.0,30.45,SE,139,0.0,0.0,92,0.00,,,0.00,Wunderground v.1.15,2013-01-15 14:09:00,
2013-01-15 09:14:00,17.4,15.5,30.45,SE,140,0.0,0.0,92,0.00,,,0.00,Wunderground v.1.15,2013-01-15 14:14:00,
2013-01-15 09:20:00,17.9,16.0,30.46,SE,140,0.0,0.0,92,0.00,,,0.00,Wunderground v.1.15,2013-01-15 14:20:00,
2013-01-15 09:25:00,18.3,16.4,30.46,SE,140,0.0,0.0,92,0.00,,,0.00,Wunderground v.1.15,2013-01-15 14:25:00,
2013-01-15 09:31:00,18.8,16.9,30.45,SE,139,0.0,0.0,92,0.00,,,0.00,Wunderground v.1.15,2013-01-15 14:31:00,
2013-01-15 09:36:00,19.3,17.4,30.45,SE,139,0.0,0.0,92,0.00,,,0.00,Wunderground v.1.15,2013-01-15 14:36:00,
2013-01-15 09:41:00,19.8,17.9,30.45,SE,139,0.0,0.0,92,0.00,,,0.00,Wunderground v.1.15,2013-01-15 14:41:00,
2013-01-15 09:47:00,20.5,18.5,30.45,SE,140,0.0,0.0,92,0.00,,,0.00,Wunderground v.1.15,2013-01-15 14:47:00,
2013-01-15 09:53:00,20.9,18.7,30.44,SE,139,0.0,0.0,91,0.00,,,0.00,Wunderground v.1.15,2013-01-15 14:53:00,
2013-01-15 09:58:00,21.3,18.8,30.44,SE,139,0.0,0.0,90,0.00,,,0.00,Wunderground v.1.15,2013-01-15 14:58:00,
2013-01-15 10:04:00,21.8,19.3,30.44,SE,140,0.0,0.0,90,0.00,,,0.00,Wunderground v.1.15,2013-01-15 15:04:00,
2013-01-15 10:10:00,22.4,19.6,30.44,SE,140,0.0,0.0,89,0.00,,,0.00,Wunderground v.1.15,2013-01-15 15:10:00,
2013-01-15 10:15:00,22.9,19.9,30.44,SE,139,0.0,0.0,88,0.00,,,0.00,Wunderground v.1.15,2013-01-15 15:15:00,
2013-01-15 10:21:00,23.3,20.0,30.43,SE,139,0.0,0.0,87,0.00,,,0.00,Wunderground v.1.15,2013-01-15 15:21:00,
2013-01-15 10:26:00,23.7,20.4,30.43,SE,140,0.0,0.0,87,0.00,,,0.00,Wunderground v.1.15,2013-01-15 15:26:00,
2013-01-15 10:32:00,23.9,20.0,30.43,SE,140,0.0,0.0,85,0.00,,,0.00,Wunderground v.1.15,2013-01-15 15:32:00,
2013-01-15 10:37:00,23.9,20.3,30.43,SE,139,0.0,0.0,86,0.00,,,0.00,Wunderground v.1.15,2013-01-15 15:37:00,
2013-01-15 10:43:00,24.2,20.3,30.42,NE,48,0.0,2.0,85,0.00,,,0.00,Wunderground v.1.15,2013-01-15 15:43:00,
2013-01-15 10:48:00,24.3,19.6,30.43,NE,49,0.0,2.0,82,0.00,,,0.00,Wunderground v.1.15,2013-01-15 15:48:00,
2013-01-15 10:53:00,24.4,19.1,30.43,NE,40,1.0,1.0,80,0.00,,,0.00,Wunderground v.1.15,2013-01-15 15:53:00,
2013-01-15 10:59:00,24.8,19.2,30.43,NE,40,1.0,2.0,79,0.00,,,0.00,Wunderground v.1.15,2013-01-15 15:59:00,
2013-01-15 11:04:00,25.2,19.9,30.43,NE,38,0.0,1.0,80,0.00,,,0.00,Wunderground v.1.15,2013-01-15 16:04:00,
2013-01-15 11:10:00,25.4,17.6,30.44,ESE,106,1.0,1.0,72,0.00,,,0.00,Wunderground v.1.15,2013-01-15 16:10:00,
2013-01-15 11:15:00,25.5,17.7,30.44,ESE,105,1.0,1.0,72,0.00,,,0.00,Wunderground v.1.15,2013-01-15 16:15:00,
2013-01-15 11:21:00,25.6,18.8,30.43,ESE,109,0.0,0.0,75,0.00,,,0.00,Wunderground v.1.15,2013-01-15 16:21:00,
2013-01-15 11:26:00,25.7,18.2,30.43,WSW,244,0.0,0.0,73,0.00,,,0.00,Wunderground v.1.15,2013-01-15 16:26:00,
2013-01-15 11:32:00,26.0,18.5,30.43,SSW,211,0.0,0.0,73,0.00,,,0.00,Wunderground v.1.15,2013-01-15 16:32:00,
2013-01-15 11:37:00,26.3,18.8,30.43,West,266,0.0,4.0,73,0.00,,,0.00,Wunderground v.1.15,2013-01-15 16:37:00,
2013-01-15 11:43:00,26.3,18.2,30.42,WSW,252,1.0,2.0,71,0.00,,,0.00,Wunderground v.1.15,2013-01-15 16:43:00,
2013-01-15 11:48:00,26.6,18.8,30.42,WSW,250,1.0,2.0,72,0.00,,,0.00,Wunderground v.1.15,2013-01-15 16:48:00,
2013-01-15 11:54:00,27.0,18.5,30.42,SSW,209,0.0,4.0,70,0.00,,,0.00,Wunderground v.1.15,2013-01-15 16:54:00,
2013-01-15 11:59:00,26.9,17.7,30.42,WNW,295,1.0,4.0,68,0.00,,,0.00,Wunderground v.1.15,2013-01-15 16:59:00,
2013-01-15 12:05:00,26.7,17.6,30.42,SW,230,2.0,3.0,68,0.00,,,0.00,Wunderground v.1.15,2013-01-15 17:05:00,
2013-01-15 12:10:00,27.0,17.5,30.42,South,181,2.0,2.0,67,0.00,,,0.00,Wunderground v.1.15,2013-01-15 17:10:00,
2013-01-15 12:16:00,27.1,17.9,30.41,NNE,19,2.0,4.0,68,0.00,,,0.00,Wunderground v.1.15,2013-01-15 17:16:00,
2013-01-15 12:21:00,27.4,18.2,30.41,South,175,2.0,3.0,68,0.00,,,0.00,Wunderground v.1.15,2013-01-15 17:21:00,
2013-01-15 12:26:00,27.5,18.3,30.41,ESE,115,1.0,3.0,68,0.00,,,0.00,Wunderground v.1.15,2013-01-15 17:26:00,
2013-01-15 12:32:00,27.4,18.2,30.40,West,270,1.0,2.0,68,0.00,,,0.00,Wunderground v.1.15,2013-01-15 17:32:00,
2013-01-15 12:38:00,27.5,18.7,30.39,SE,132,1.0,3.0,69,0.00,,,0.00,Wunderground v.1.15,2013-01-15 17:38:00,
2013-01-15 12:43:00,27.9,19.0,30.38,WNW,283,1.0,3.0,69,0.00,,,0.01,Wunderground v.1.15,2013-01-15 17:43:00,
2013-01-15 12:49:00,28.0,17.7,30.38,SE,132,2.0,3.0,65,0.00,,,0.01,Wunderground v.1.15,2013-01-15 17:49:00,
2013-01-15 12:54:00,27.9,18.0,30.37,SE,127,2.0,5.0,66,0.00,,,0.01,Wunderground v.1.15,2013-01-15 17:54:00,
2013-01-15 12:59:00,27.5,17.3,30.36,East,80,2.0,5.0,65,0.00,,,0.01,Wunderground v.1.15,2013-01-15 17:59:00,
2013-01-15 13:05:00,27.5,17.6,30.36,SSE,165,2.0,3.0,66,0.00,,,0.01,Wunderground v.1.15,2013-01-15 18:05:00,
2013-01-15 13:10:00,27.5,17.6,30.35,ENE,66,1.0,1.0,66,0.00,,,0.01,Wunderground v.1.15,2013-01-15 18:10:00,
2013-01-15 13:16:00,27.7,17.8,30.35,SSW,199,1.0,4.0,66,0.00,,,0.01,Wunderground v.1.15,2013-01-15 18:16:00,
2013-01-15 13:21:00,28.0,17.7,30.35,SSW,199,1.0,1.0,65,0.00,,,0.01,Wunderground v.1.15,2013-01-15 18:21:00,
2013-01-15 13:26:00,28.2,18.3,30.35,SSW,203,0.0,3.0,66,0.00,,,0.01,Wunderground v.1.15,2013-01-15 18:26:00,
2013-01-15 13:32:00,28.2,18.3,30.37,South,171,2.0,3.0,66,0.00,,,0.01,Wunderground v.1.15,2013-01-15 18:32:00,
2013-01-15 13:37:00,28.4,18.1,30.37,West,269,2.0,4.0,65,0.00,,,0.01,Wunderground v.1.15,2013-01-15 18:37:00,
2013-01-15 13:43:00,28.5,18.2,30.36,SSW,199,1.0,4.0,65,0.00,,,0.01,Wunderground v.1.15,2013-01-15 18:43:00,
2013-01-15 13:48:00,28.6,18.7,30.36,West,260,1.0,4.0,66,0.00,,,0.01,Wunderground v.1.15,2013-01-15 18:48:00,
2013-01-15 13:54:00,28.3,18.0,30.36,West,271,2.0,6.0,65,0.00,,,0.01,Wunderground v.1.15,2013-01-15 18:54:00,
2013-01-15 13:59:00,28.1,17.8,30.36,West,259,3.0,6.0,65,0.00,,,0.01,Wunderground v.1.15,2013-01-15 18:59:00,
2013-01-15 14:05:00,28.1,18.2,30.36,South,184,2.0,3.0,66,0.00,,,0.01,Wunderground v.1.15,2013-01-15 19:05:00,
2013-01-15 14:10:00,28.3,17.7,30.36,South,184,1.0,1.0,64,0.00,,,0.01,Wunderground v.1.15,2013-01-15 19:10:00,
2013-01-15 14:16:00,28.5,17.9,30.36,WNW,292,1.0,3.0,64,0.00,,,0.01,Wunderground v.1.15,2013-01-15 19:16:00,
2013-01-15 14:21:00,28.5,18.2,30.36,West,272,1.0,1.0,65,0.00,,,0.01,Wunderground v.1.15,2013-01-15 19:21:00,
2013-01-15 14:27:00,28.9,18.2,30.36,South,178,1.0,4.0,64,0.00,,,0.01,Wunderground v.1.15,2013-01-15 19:27:00,
2013-01-15 14:32:00,29.0,18.0,30.36,SSE,148,1.0,1.0,63,0.00,,,0.01,Wunderground v.1.15,2013-01-15 19:32:00,
2013-01-15 14:38:00,29.0,18.0,30.35,WSW,250,2.0,4.0,63,0.00,,,0.01,Wunderground v.1.15,2013-01-15 19:38:00,
2013-01-15 14:43:00,28.9,18.2,30.35,West,273,2.0,3.0,64,0.00,,,0.01,Wunderground v.1.15,2013-01-15 19:43:00,
2013-01-15 14:48:00,29.0,18.0,30.34,South,177,1.0,3.0,63,0.00,,,0.01,Wunderground v.1.15,2013-01-15 19:48:00,
2013-01-15 14:54:00,29.3,18.3,30.33,SW,228,0.0,2.0,63,0.00,,,0.01,Wunderground v.1.15,2013-01-15 19:54:00,
2013-01-15 14:59:00,29.3,17.9,30.33,SSW,211,1.0,2.0,62,0.00,,,0.01,Wunderground v.1.15,2013-01-15 19:59:00,
2013-01-15 15:05:00,29.2,17.8,30.32,ESE,107,1.0,2.0,62,0.00,,,0.01,Wunderground v.1.15,2013-01-15 20:05:00,
2013-01-15 15:10:00,29.1,17.7,30.32,SE,132,1.0,1.0,62,0.00,,,0.01,Wunderground v.1.15,2013-01-15 20:10:00,
2013-01-15 15:15:00,29.2,18.5,30.32,WSW,254,0.0,1.0,64,0.00,,,0.01,Wunderground v.1.15,2013-01-15 20:15:00,
2013-01-15 15:21:00,29.0,18.0,30.32,WSW,254,0.0,0.0,63,0.00,,,0.01,Wunderground v.1.15,2013-01-15 20:21:00,
2013-01-15 15:26:00,28.9,17.9,30.32,WSW,254,0.0,0.0,63,0.00,,,0.01,Wunderground v.1.15,2013-01-15 20:26:00,
2013-01-15 15:32:00,28.9,18.2,30.32,SSE,159,0.0,0.0,64,0.00,,,0.01,Wunderground v.1.15,2013-01-15 20:32:00,
2013-01-15 15:38:00,28.9,17.9,30.32,South,174,0.0,1.0,63,0.00,,,0.01,Wunderground v.1.15,2013-01-15 20:38:00,
2013-01-15 15:43:00,28.9,17.9,30.32,South,175,0.0,0.0,63,0.00,,,0.01,Wunderground v.1.15,2013-01-15 20:43:00,
2013-01-15 15:48:00,29.0,17.6,30.33,South,187,0.0,1.0,62,0.00,,,0.01,Wunderground v.1.15,2013-01-15 20:48:00,
2013-01-15 15:54:00,28.9,16.7,30.32,South,187,0.0,0.0,60,0.00,,,0.01,Wunderground v.1.15,2013-01-15 20:54:00,
2013-01-15 15:59:00,28.9,17.5,30.33,South,187,0.0,0.0,62,0.00,,,0.01,Wunderground v.1.15,2013-01-15 20:59:00,
2013-01-15 16:05:00,28.9,17.9,30.33,South,187,0.0,0.0,63,0.00,,,0.01,Wunderground v.1.15,2013-01-15 21:05:00,
2013-01-15 16:11:00,28.8,17.8,30.32,South,187,0.0,0.0,63,0.00,,,0.01,Wunderground v.1.15,2013-01-15 21:11:00,
2013-01-15 16:16:00,28.8,18.1,30.31,South,187,0.0,0.0,64,0.00,,,0.01,Wunderground v.1.15,2013-01-15 21:16:00,
2013-01-15 16:21:00,28.8,18.1,30.31,South,187,0.0,3.0,64,0.00,,,0.01,Wunderground v.1.15,2013-01-15 21:21:00,
2013-01-15 16:27:00,28.8,18.9,30.31,SW,215,0.0,3.0,66,0.00,,,0.01,Wunderground v.1.15,2013-01-15 21:27:00,
2013-01-15 16:32:00,28.8,18.9,30.31,SSW,202,0.0,1.0,66,0.00,,,0.01,Wunderground v.1.15,2013-01-15 21:32:00,
2013-01-15 16:38:00,28.8,18.9,30.31,SSW,202,0.0,1.0,66,0.00,,,0.01,Wunderground v.1.15,2013-01-15 21:38:00,
2013-01-15 16:43:00,28.7,19.1,30.31,SSW,196,0.0,0.0,67,0.00,,,0.01,Wunderground v.1.15,2013-01-15 21:43:00,
2013-01-15 16:49:00,28.7,19.1,30.30,SSW,196,1.0,3.0,67,0.00,,,0.01,Wunderground v.1.15,2013-01-15 21:49:00,
2013-01-15 16:54:00,28.6,19.4,30.30,SSW,196,1.0,1.0,68,0.00,,,0.01,Wunderground v.1.15,2013-01-15 21:54:00,
2013-01-15 17:00:00,28.5,19.3,30.30,SSW,196,0.0,0.0,68,0.00,,,0.01,Wunderground v.1.15,2013-01-15 22:00:00,
2013-01-15 17:06:00,28.5,19.6,30.30,SSW,196,0.0,0.0,69,0.00,,,0.01,Wunderground v.1.15,2013-01-15 22:06:00,
2013-01-15 17:11:00,28.4,19.5,30.31,SSW,209,0.0,0.0,69,0.00,,,0.01,Wunderground v.1.15,2013-01-15 22:11:00,
2013-01-15 17:17:00,28.3,19.4,30.31,SSW,209,0.0,0.0,69,0.00,,,0.01,Wunderground v.1.15,2013-01-15 22:17:00,
2013-01-15 17:22:00,28.3,19.4,30.31,SSW,209,0.0,0.0,69,0.00,,,0.01,Wunderground v.1.15,2013-01-15 22:22:00,
2013-01-15 17:28:00,28.2,19.3,30.31,South,185,0.0,4.0,69,0.00,,,0.01,Wunderground v.1.15,2013-01-15 22:28:00,
2013-01-15 17:34:00,28.1,18.9,30.31,South,182,1.0,4.0,68,0.00,,,0.01,Wunderground v.1.15,2013-01-15 22:34:00,
2013-01-15 17:39:00,28.1,19.2,30.31,South,182,1.0,4.0,69,0.00,,,0.01,Wunderground v.1.15,2013-01-15 22:39:00,
2013-01-15 17:44:00,28.0,19.1,30.32,SSW,201,0.0,1.0,69,0.00,,,0.01,Wunderground v.1.15,2013-01-15 22:44:00,
2013-01-15 17:50:00,28.0,19.5,30.32,SSW,201,0.0,0.0,70,0.00,,,0.01,Wunderground v.1.15,2013-01-15 22:50:00,
2013-01-15 17:56:00,28.0,19.8,30.32,SSW,201,0.0,0.0,71,0.00,,,0.01,Wunderground v.1.15,2013-01-15 22:56:00,
2013-01-15 18:02:00,27.9,19.7,30.31,SSE,161,0.0,0.0,71,0.00,,,0.01,Wunderground v.1.15,2013-01-15 23:02:00,
2013-01-15 18:07:00,27.8,19.9,30.30,SSE,165,0.0,1.0,72,0.00,,,0.01,Wunderground v.1.15,2013-01-15 23:07:00,
2013-01-15 18:13:00,27.8,19.9,30.31,South,190,0.0,1.0,72,0.00,,,0.01,Wunderground v.1.15,2013-01-15 23:13:00,
2013-01-15 18:18:00,27.8,20.3,30.31,SSW,195,0.0,1.0,73,0.00,,,0.01,Wunderground v.1.15,2013-01-15 23:18:00,
2013-01-15 18:24:00,27.7,20.2,30.31,SSW,195,0.0,0.0,73,0.00,,,0.01,Wunderground v.1.15,2013-01-15 23:24:00,
2013-01-15 18:29:00,27.6,20.4,30.31,SSW,195,0.0,0.0,74,0.00,,,0.01,Wunderground v.1.15,2013-01-15 23:29:00,
2013-01-15 18:35:00,27.5,20.3,30.30,SSW,195,0.0,0.0,74,0.00,,,0.01,Wunderground v.1.15,2013-01-15 23:35:00,
2013-01-15 18:40:00,27.4,20.5,30.31,SSW,195,0.0,0.0,75,0.00,,,0.01,Wunderground v.1.15,2013-01-15 23:40:00,
2013-01-15 18:46:00,27.4,20.5,30.30,SSW,205,1.0,4.0,75,0.00,,,0.01,Wunderground v.1.15,2013-01-15 23:46:00,
2013-01-15 18:51:00,27.3,20.4,30.30,SSW,211,1.0,1.0,75,0.00,,,0.01,Wunderground v.1.15,2013-01-15 23:51:00,
2013-01-15 18:57:00,27.2,20.3,30.30,SSE,162,0.0,2.0,75,0.00,,,0.01,Wunderground v.1.15,2013-01-15 23:57:00,
2013-01-15 19:03:00,27.1,20.2,30.30,SSW,197,1.0,1.0,75,0.00,,,0.01,Wunderground v.1.15,2013-01-16 00:03:00,
2013-01-15 19:08:00,27.1,20.2,30.30,West,273,1.0,2.0,75,0.00,,,0.01,Wunderground v.1.15,2013-01-16 00:08:00,
2013-01-15 19:13:00,27.0,20.4,30.30,West,273,1.0,2.0,76,0.00,,,0.01,Wunderground v.1.15,2013-01-16 00:13:00,
2013-01-15 19:19:00,26.9,20.3,30.30,West,273,0.0,2.0,76,0.00,,,0.01,Wunderground v.1.15,2013-01-16 00:19:00,
2013-01-15 19:24:00,26.7,20.1,30.30,West,273,0.0,1.0,76,0.00,,,0.01,Wunderground v.1.15,2013-01-16 00:24:00,
2013-01-15 19:30:00,26.6,20.1,30.30,West,273,0.0,0.0,76,0.00,,,0.01,Wunderground v.1.15,2013-01-16 00:30:00,
2013-01-15 19:36:00,26.5,20.3,30.30,West,273,0.0,0.0,77,0.00,,,0.01,Wunderground v.1.15,2013-01-16 00:36:00,
2013-01-15 19:41:00,26.4,20.2,30.29,West,273,0.0,0.0,77,0.00,,,0.01,Wunderground v.1.15,2013-01-16 00:41:00,
2013-01-15 19:47:00,26.3,20.1,30.29,West,273,0.0,0.0,77,0.00,,,0.01,Wunderground v.1.15,2013-01-16 00:47:00,
2013-01-15 19:52:00,26.3,20.1,30.29,West,273,0.0,0.0,77,0.00,,,0.01,Wunderground v.1.15,2013-01-16 00:52:00,
2013-01-15 19:57:00,26.2,20.0,30.28,West,273,0.0,0.0,77,0.00,,,0.01,Wunderground v.1.15,2013-01-16 00:57:00,
2013-01-15 20:03:00,26.0,20.1,30.28,West,273,0.0,0.0,78,0.00,,,0.01,Wunderground v.1.15,2013-01-16 01:03:00,
2013-01-15 20:09:00,25.8,19.9,30.27,West,273,0.0,0.0,78,0.00,,,0.01,Wunderground v.1.15,2013-01-16 01:09:00,
2013-01-15 20:14:00,25.8,19.9,30.27,West,273,0.0,0.0,78,0.00,,,0.01,Wunderground v.1.15,2013-01-16 01:14:00,
2013-01-15 20:20:00,25.6,19.7,30.27,West,273,0.0,0.0,78,0.00,,,0.01,Wunderground v.1.15,2013-01-16 01:20:00,
2013-01-15 20:25:00,25.5,19.6,30.27,West,273,0.0,0.0,78,0.00,,,0.01,Wunderground v.1.15,2013-01-16 01:25:00,
2013-01-15 20:30:00,25.3,19.7,30.27,West,273,0.0,0.0,79,0.00,,,0.01,Wunderground v.1.15,2013-01-16 01:30:00,
2013-01-15 20:36:00,25.2,19.6,30.26,West,273,0.0,0.0,79,0.00,,,0.01,Wunderground v.1.15,2013-01-16 01:36:00,
2013-01-15 20:42:00,25.1,19.5,30.25,West,273,0.0,0.0,79,0.00,,,0.01,Wunderground v.1.15,2013-01-16 01:42:00,
2013-01-15 20:47:00,25.0,19.4,30.25,West,273,0.0,0.0,79,0.00,,,0.01,Wunderground v.1.15,2013-01-16 01:47:00,
2013-01-15 20:53:00,24.9,19.6,30.25,West,273,0.0,0.0,80,0.00,,,0.01,Wunderground v.1.15,2013-01-16 01:53:00,
2013-01-15 20:58:00,24.8,19.5,30.24,West,273,0.0,0.0,80,0.00,,,0.01,Wunderground v.1.15,2013-01-16 01:58:00,
2013-01-15 21:04:00,24.8,19.8,30.24,West,273,0.0,0.0,81,0.00,,,0.01,Wunderground v.1.15,2013-01-16 02:04:00,
2013-01-15 21:09:00,24.7,19.7,30.24,West,273,0.0,0.0,81,0.00,,,0.01,Wunderground v.1.15,2013-01-16 02:09:00,
2013-01-15 21:15:00,24.6,19.6,30.23,West,273,0.0,1.0,81,0.00,,,0.01,Wunderground v.1.15,2013-01-16 02:15:00,
2013-01-15 21:20:00,24.6,19.9,30.23,West,273,0.0,0.0,82,0.00,,,0.01,Wunderground v.1.15,2013-01-16 02:20:00,
2013-01-15 21:26:00,24.5,19.8,30.23,West,273,0.0,0.0,82,0.00,,,0.01,Wunderground v.1.15,2013-01-16 02:26:00,
2013-01-15 21:31:00,24.5,20.1,30.23,West,273,0.0,0.0,83,0.00,,,0.01,Wunderground v.1.15,2013-01-16 02:31:00,
2013-01-15 21:37:00,24.3,19.9,30.23,West,273,0.0,0.0,83,0.00,,,0.01,Wunderground v.1.15,2013-01-16 02:37:00,
2013-01-15 21:42:00,24.3,19.9,30.22,West,273,0.0,0.0,83,0.00,,,0.01,Wunderground v.1.15,2013-01-16 02:42:00,
2013-01-15 21:48:00,24.1,20.0,30.21,West,273,0.0,0.0,84,0.00,,,0.01,Wunderground v.1.15,2013-01-16 02:48:00,
2013-01-15 21:53:00,24.0,19.9,30.22,West,273,0.0,0.0,84,0.00,,,0.01,Wunderground v.1.15,2013-01-16 02:53:00,
2013-01-15 21:59:00,24.0,19.9,30.22,West,273,0.0,0.0,84,0.00,,,0.01,Wunderground v.1.15,2013-01-16 02:59:00,
2013-01-15 22:05:00,23.9,19.8,30.22,West,273,0.0,0.0,84,0.00,,,0.01,Wunderground v.1.15,2013-01-16 03:05:00,
2013-01-15 22:10:00,23.8,19.7,30.21,West,273,0.0,0.0,84,0.00,,,0.01,Wunderground v.1.15,2013-01-16 03:10:00,
2013-01-15 22:15:00,23.7,19.6,30.21,West,273,0.0,0.0,84,0.00,,,0.01,Wunderground v.1.15,2013-01-16 03:15:00,
2013-01-15 22:21:00,23.7,19.9,30.21,West,273,0.0,0.0,85,0.00,,,0.01,Wunderground v.1.15,2013-01-16 03:21:00,
2013-01-15 22:26:00,23.7,19.9,30.21,West,273,0.0,0.0,85,0.00,,,0.01,Wunderground v.1.15,2013-01-16 03:26:00,
2013-01-15 22:32:00,23.6,19.8,30.20,West,273,0.0,0.0,85,0.00,,,0.01,Wunderground v.1.15,2013-01-16 03:32:00,
2013-01-15 22:37:00,23.5,19.7,30.21,West,273,0.0,0.0,85,0.00,,,0.01,Wunderground v.1.15,2013-01-16 03:37:00,
2013-01-15 22:43:00,23.4,19.6,30.21,West,273,0.0,0.0,85,0.00,,,0.01,Wunderground v.1.15,2013-01-16 03:43:00,
2013-01-15 22:48:00,23.4,19.8,30.20,West,273,0.0,0.0,86,0.00,,,0.01,Wunderground v.1.15,2013-01-16 03:48:00,
2013-01-15 22:54:00,23.4,19.8,30.20,West,273,0.0,0.0,86,0.00,,,0.01,Wunderground v.1.15,2013-01-16 03:54:00,
2013-01-15 22:59:00,23.3,19.7,30.19,West,273,0.0,0.0,86,0.00,,,0.01,Wunderground v.1.15,2013-01-16 03:59:00,
2013-01-15 23:05:00,23.3,20.0,30.19,West,273,0.0,0.0,87,0.00,,,0.01,Wunderground v.1.15,2013-01-16 04:05:00,
2013-01-15 23:10:00,23.3,20.0,30.19,West,273,0.0,0.0,87,0.00,,,0.01,Wunderground v.1.15,2013-01-16 04:10:00,
2013-01-15 23:16:00,23.2,19.9,30.19,West,273,0.0,0.0,87,0.00,,,0.01,Wunderground v.1.15,2013-01-16 04:16:00,
2013-01-15 23:21:00,23.1,19.8,30.19,West,273,0.0,0.0,87,0.00,,,0.01,Wunderground v.1.15,2013-01-16 04:21:00,
2013-01-15 23:26:00,23.0,19.7,30.18,West,273,0.0,0.0,87,0.00,,,0.01,Wunderground v.1.15,2013-01-16 04:26:00,
2013-01-15 23:32:00,22.9,19.6,30.18,West,273,0.0,0.0,87,0.00,,,0.01,Wunderground v.1.15,2013-01-16 04:32:00,
2013-01-15 23:38:00,22.8,19.5,30.18,West,273,0.0,0.0,87,0.00,,,0.01,Wunderground v.1.15,2013-01-16 04:38:00,
2013-01-15 23:43:00,22.6,19.3,30.18,West,273,0.0,0.0,87,0.00,,,0.01,Wunderground v.1.15,2013-01-16 04:43:00,
2013-01-15 23:49:00,22.5,19.2,30.17,West,273,0.0,0.0,87,0.00,,,0.01,Wunderground v.1.15,2013-01-16 04:49:00,
2013-01-15 23:55:00,22.4,19.4,30.16,West,273,0.0,0.0,88,0.00,,,0.01,Wunderground v.1.15,2013-01-16 04:55:00,